This is the latest recevied weather packets stored in our database for station/object DG9VH-13. If no packets are shown the sender has not sent any weather packets the latest 10 day(s).
| Time | Temp. | Humidity | Pressure | Rain* | Wind** | Luminosity | Snow |
|---|---|---|---|---|---|---|---|
| 1788698407 | 25.56° C | 41% | 1006.7 hPa | - | - | - | - |
| 1788697802 | 25.56° C | 40% | 1006.6 hPa | - | - | - | - |
| 1788697202 | 25.56° C | 41% | 1006.8 hPa | - | - | - | - |
| 1788696602 | 25.56° C | 39% | 1006.8 hPa | - | - | - | - |
| 1788696001 | 25.56° C | 39% | 1007 hPa | - | - | - | - |
| 1788695402 | 25.56° C | 39% | 1007.1 hPa | - | - | - | - |
| 1788694802 | 25.56° C | 43% | 1007.2 hPa | - | - | - | - |
| 1788694229 | 25.56° C | 38% | 1007.3 hPa | - | - | - | - |
| 1788693603 | 26.67° C | 38% | 1007.5 hPa | - | - | - | - |
| 1788693000 | 26.11° C | 38% | 1007.6 hPa | - | - | - | - |
| 1788692400 | 26.11° C | 38% | 1007.7 hPa | - | - | - | - |
| 1788691802 | 26.11° C | 38% | 1007.8 hPa | - | - | - | - |
| 1788691202 | 25.56° C | 39% | 1008 hPa | - | - | - | - |
| 1788690602 | 25.56° C | 40% | 1008 hPa | - | - | - | - |
| 1788690000 | 25.56° C | 43% | 1008 hPa | - | - | - | - |
| 1788689402 | 26.67° C | 38% | 1008.1 hPa | - | - | - | - |
| 1788688801 | 26.67° C | 39% | 1008.1 hPa | - | - | - | - |
| 1788688202 | 26.67° C | 39% | 1008.2 hPa | - | - | - | - |
| 1788687602 | 26.67° C | 40% | 1008.3 hPa | - | - | - | - |
| 1788687033 | 26.67° C | 39% | 1008.5 hPa | - | - | - | - |
| 1788686402 | 25.56° C | 42% | 1008.6 hPa | - | - | - | - |
| 1788685802 | 26.11° C | 42% | 1008.7 hPa | - | - | - | - |
| 1788685201 | 25.56° C | 40% | 1008.2 hPa | - | - | - | - |
| 1788684601 | 25.56° C | 40% | 1008.8 hPa | - | - | - | - |
| 1788684001 | 26.67° C | 39% | 1008.7 hPa | - | - | - | - |
* Rain since midnight (hover to see other rain measurements)
** Current wind speed in m/s (hover to see current wind gust speed)